Miscellaneous Local Product
Issued by NWS Hastings, NE

Home | Current Version | Previous Version | Graphics & Text | Print | Product List | Glossary On
Versions: 1 2 3 4 5 6 7 8 9 10 11 12 13 14 15 16 17 18 19 20 21 22 23 24 25 26 27 28 29 30 31 32 33 34 35 36 37 38 39 40 41 42 43 44 45 46 47 48 49 50
641
AXUS43 KGID 251702
MISGRI

GID CWA HOURLY WEATHER ROUNDUP
NATIONAL WEATHER SERVICE HASTINGS NE
1200 PM CDT SUN SEP 25 2016

NOTE: "FAIR" INDICATES FEW OR NO CLOUDS BELOW 12,000 FEET WITH NO
SIGNIFICANT WEATHER AND/OR OBSTRUCTIONS TO VISIBILITY.

...SOUTH CENTRAL NEBRASKA...

CITY           SKY/WX    TMP DP  RH WIND       PRES   REMARKS
GRAND ISLAND   SUNNY     67  45  45 NW18G29   30.23S
HASTINGS       SUNNY     66  44  45 NW20G30   30.25S
KEARNEY        SUNNY     66  37  34 NW21G31   30.25F
ORD            SUNNY     65  40  39 NW25G37   30.21S
YORK           SUNNY     66  45  45 NW23G29   30.20S
AURORA         SUNNY     66  44  44 NW16G25   30.22S
LEXINGTON      SUNNY     66  41  40 NW22G29   30.28F
HOLDREGE       SUNNY     66  38  36 NW18G30   30.28S
HEBRON         MOSUNNY   68  46  44 NW14G22   30.21S

...NEBRASKA PANHANDLE...

CITY           SKY/WX    TMP DP  RH WIND       PRES   REMARKS
CHADRON        SUNNY     59  34  39 NW23G30   30.38F
ALLIANCE       SUNNY     59  35  40 NW24G32   30.38S
SCOTTSBLUFF    CLOUDY    61  38  42 NW17      30.43F
SIDNEY         LGT RAIN  61  37  41 NW25G35   30.43S

...WESTERN AND NORTH CENTRAL NEBRASKA...

CITY           SKY/WX    TMP DP  RH WIND       PRES   REMARKS
VALENTINE      SUNNY     61  31  32 NW28G36   30.26F
AINSWORTH      SUNNY     61  35  37 NW26G36   30.25R
ONEILL         MOSUNNY   65  39  38 NW28G39   30.19R
BROKEN BOW     SUNNY     64  37  36 NW29G37   30.26R
IMPERIAL       SUNNY     64  36  35 NW26G33   30.36R
NORTH PLATTE   SUNNY     68  38  33 NW25G35   30.31S
MCCOOK         SUNNY     69  38  32 NW22G28   30.32S

...EASTERN NEBRASKA...

CITY           SKY/WX    TMP DP  RH WIND       PRES   REMARKS
NORFOLK        MOSUNNY   66  44  45 NW22G33   30.15R
SO SIOUX CITY  CLOUDY    65  49  56 NW22G30   30.09R
TEKAMAH        MOSUNNY   69  48  47 NW21G29   30.12S
COLUMBUS       SUNNY    N/A N/A N/A NW21G29   30.17S
ALBION         MOSUNNY   65  45  47 NW20G32   30.19S
OMAHA EPPLEY   CLOUDY    66  51  58 NW10      30.13F
OFFUTT AFB     CLOUDY    64  51  64 W9        30.14S
MILLARD        CLOUDY    66  51  58 W12G17    30.14F
LINCOLN        PTSUNNY   69  47  45 NW18G31   30.17F
NEBRASKA CITY  CLOUDY    62  42  48 NW12      30.16F
BEATRICE       CLOUDY    64  50  59 N12G18    30.19F
FALLS CITY     CLOUDY    65  51  60 N12G18    30.15F

...NORTHERN KANSAS...

CITY           SKY/WX    TMP DP  RH WIND       PRES   REMARKS
GOODLAND       SUNNY     64  34  32 N23G31    30.38S
HILL CITY      SUNNY     67  45  45 N16G24    30.31F
NORTON         SUNNY     68  32  26 NW21G29   30.30S
PHILLIPSBURG   SUNNY     70  39  32 NW15G26   30.29S
SMITH CENTER   SUNNY     68  43  40 NW20G25   30.27S
HAYS           SUNNY     70  43  37 N18G25    30.29S
CONCORDIA      CLOUDY    63  49  60 N10       30.23S
SALINA         MOSUNNY   67  51  56 N17       30.24S
TOPEKA         CLOUDY    62  56  80 N6        30.18F



USA.gov is the U.S. government's official web portal to all federal, state and local government web resources and services.